SICH 2

Satellite information

Favourite Embed

Satellite Type and Status

PAYLOADIN ORBIT

Key statistics

Satellite SICH 2 at a glance.

Uptime

5011

Days in orbit

Revolutions

≈ 14.6

Per day

Orbit

SSO

Sun Synchronous Orbit

Inclination

97.8

Latest

Satellite identification and parameters

Extended collection of information and parameters for SICH 2.

Object identification

Identified? True

Debris? False

Object name: SICH 2

International designator: 2011-044G

Object number (NORAD): 37794

Object ID (CCSDS): 37794

Country: UKRAINE (UKR)

Current information (Y/N): Y

RCS size: MEDIUM

Orbital parameters

Period: 98.301 minutes

Inclination: 97.8024 deg

SMA: 7055.588 km

Apoapsis: 686.537 km

Periapsis: 668.368 km

RAAN: 121.3084 deg

Eccentricy: 0.0012876

Argument of periapsis: 30.7384 deg

Mean anomaly: 348.1878 deg

Mean motion: 14.64883151 rev/day

Mean motion (dot): 0.00001057 rev/day2

B* drag term: 0.00020586 1/REarth

Two-line elements (TLE)

Creation date: May 6, 2025, 3:54 a.m.

Reference frame: TEME

Reference center: EARTH

Epoch: May 5, 2025, 10:06 p.m. UTC

TLE line 0: 0 SICH 2

TLE line 1: 1 37794U 11044G 25125.92126597 .00001057 00000-0 20586-3 0 9993

TLE line 2: 2 37794 97.8024 121.3084 0012876 30.7384 348.1878 14.64883151731821

Live tracking on map

Real-time ground track for satellite SICH 2.

In-orbit conjunctions

There are no conjunctions computed for SICH 2, at the moment. Check back to stay up to date, as we update our databases every day.

Go to all conjunctions

Associated space launch

SICH 2 was lifted into orbit during the mission ‘Dnepr 1 | Sich-2’, on board a Dnepr space rocket.

The launch took place on Aug. 17, 2011, 7:12 a.m. from 370/13.

For more information about the launch, click the button.

Launch to space Dnepr 1 | Sich-2
Dnepr 1 | Sich-2

Agency: N/A

Status: Launch Successful

Launch date: Aug. 17, 2011, 7:12 a.m. UTC

Rocket: Dnepr

Launch pad: 370/13

Location: Dombarovskiy, Russian Federation

...

Latest news about this satellite

There are no fresh news available about this satellite. Check back as we update our databases every day.


Newsletter sign-up

Weekly statistics, charts and insights to help you stay on top of the space industry.